Location: Passau
(48.5830°N, 13.4830°E)
Time: 02:07:59
(UTC+01:00)

NOAA 19 - Pass Details

Date: 07 December 2021
Orbit: 841 x 860 km, 99.2° (Epoch: 17 January)

Event Time Altitude Azimuth Distance (km) Brightness Sun altitude
Rises 17:18:22 0° 123° (ESE) 3,391 8.0 -10.7°
Reaches altitude 10° 17:21:06 10° 111° (ESE) 2,462 7.2 -11.1°
Maximum altitude 17:25:24 25° 58° (ENE) 1,664 6.2 -11.7°
Drops below altitude 10° 17:29:44 10° 6° (N) 2,482 7.4 -12.4°
Sets 17:32:30 0° 354° (N) 3,425 8.2 -12.8°
